Location: Chisos Basin
(29.2675°N, 103.3000°W)
Time: 04:54:04
(UTC-05:00)

ISS - Visible Passes

Search period start: 20 March 2019 00:00
Search period end: 30 March 2019 00:00
Orbit: 406 x 411 km, 51.6° (Epoch: 20 March)

Date Brightness Start Highest point End Pass type
(mag) Time Alt. Az. Time Alt. Az. Time Alt. Az.
20 Mar -2.6 21:22:58 10° WSW 21:26:07 42° NW 21:28:02 20° NNE visible
21 Mar -3.9 20:31:50 10° SW 20:35:06 82° SE 20:38:24 10° NE visible
22 Mar -0.9 21:18:40 10° WNW 21:20:47 16° NW 21:22:55 10° N visible
